Location: Newark
(39.5667°N, 8.9833°E)
Time: 22:21:52
(UTC+00:00)

SR - Visible Passes

Search period start: 16 October 2019 00:00
Search period end: 26 October 2019 00:00
Orbit: 575 x 881 km, 66.7° (Epoch: 16 October)

Date Brightness Start Highest point End Pass type
(mag) Time Alt. Az. Time Alt. Az. Time Alt. Az.
19 Oct ? 04:36:24 10° NNE 04:38:07 11° NE 04:39:51 10° NE visible
21 Oct ? 04:37:37 10° N 04:41:31 18° NE 04:45:26 10° E visible
22 Oct ? 03:49:49 10° NNE 03:51:09 11° NE 03:52:29 10° NE visible
23 Oct ? 04:39:42 10° N 04:44:45 28° NE 04:49:46 10° ESE visible
24 Oct ? 03:50:48 10° N 03:54:34 17° NE 03:58:20 10° E visible
25 Oct ? 03:03:25 10° NNE 03:04:10 10° NE 03:04:55 10° NE visible
25 Oct ? 04:42:05 10° NNW 04:47:47 46° NE 04:53:25 10° SE visible
